TimePST,TemperatureF,Dew PointF,Humidity,Sea Level PressureIn,VisibilityMPH,Wind Direction,Wind SpeedMPH,Gust SpeedMPH,PrecipitationIn,Events,Conditions,WindDirDegrees,DateUTC
12:15 AM,42.8,32.0,66,30.19,10.0,Calm,Calm,-,N/A,,Clear,0,2013-02-22 08:15:00
12:35 AM,41.0,32.0,70,30.20,10.0,Calm,Calm,-,N/A,,Clear,0,2013-02-22 08:35:00
12:55 AM,42.8,33.8,70,30.20,10.0,Calm,Calm,-,N/A,,Clear,0,2013-02-22 08:55:00
1:15 AM,41.0,32.0,70,30.20,10.0,Calm,Calm,-,N/A,,Clear,0,2013-02-22 09:15:00
1:35 AM,41.0,33.8,76,30.20,10.0,Calm,Calm,-,N/A,,Clear,0,2013-02-22 09:35:00
1:55 AM,41.0,33.8,76,30.20,10.0,Calm,Calm,-,N/A,,Clear,0,2013-02-22 09:55:00
2:15 AM,41.0,33.8,76,30.20,10.0,Calm,Calm,-,N/A,,Clear,0,2013-02-22 10:15:00
2:35 AM,41.0,33.8,76,30.20,10.0,Calm,Calm,-,N/A,,Clear,0,2013-02-22 10:35:00
2:55 AM,41.0,33.8,76,30.20,10.0,Calm,Calm,-,N/A,,Clear,0,2013-02-22 10:55:00
3:15 AM,41.0,33.8,76,30.19,10.0,Calm,Calm,-,N/A,,Clear,0,2013-02-22 11:15:00
3:35 AM,41.0,33.8,76,30.20,10.0,Calm,Calm,-,N/A,,Clear,0,2013-02-22 11:35:00
3:55 AM,41.0,35.6,81,30.20,10.0,Calm,Calm,-,N/A,,Clear,0,2013-02-22 11:55:00
4:15 AM,41.0,33.8,76,30.20,10.0,Calm,Calm,-,N/A,,Clear,0,2013-02-22 12:15:00
4:35 AM,39.2,33.8,81,30.21,10.0,Calm,Calm,-,N/A,,Clear,0,2013-02-22 12:35:00
4:55 AM,39.2,33.8,81,30.21,10.0,Calm,Calm,-,N/A,,Clear,0,2013-02-22 12:55:00
5:35 AM,39.2,33.8,81,30.22,10.0,Calm,Calm,-,N/A,,Clear,0,2013-02-22 13:35:00
5:55 AM,39.2,33.8,81,30.23,10.0,Calm,Calm,-,N/A,,Clear,0,2013-02-22 13:55:00
6:15 AM,41.0,35.6,81,30.23,10.0,Calm,Calm,-,N/A,,Clear,0,2013-02-22 14:15:00
6:35 AM,39.2,35.6,87,30.24,10.0,Calm,Calm,-,N/A,,Clear,0,2013-02-22 14:35:00
6:55 AM,41.0,35.6,81,30.24,10.0,Calm,Calm,-,N/A,,Clear,0,2013-02-22 14:55:00
6:57 AM,42.8,37.4,81,30.25,10.0,SE,3.5,-,N/A,,Scattered Clouds,140,2013-02-22 14:57:00
7:47 AM,42.8,37.4,81,30.25,10.0,SE,3.5,-,N/A,,Scattered Clouds,140,2013-02-22 15:47:00
8:47 AM,46.4,37.4,71,30.26,10.0,Calm,Calm,-,N/A,,Scattered Clouds,0,2013-02-22 16:47:00
9:47 AM,48.2,37.4,66,30.27,10.0,Calm,Calm,-,N/A,,Scattered Clouds,0,2013-02-22 17:47:00
10:47 AM,50.0,39.2,66,30.27,10.0,NE,5.8,-,N/A,,Scattered Clouds,50,2013-02-22 18:47:00
11:47 AM,53.6,41.0,62,30.26,10.0,NE,6.9,-,N/A,,Scattered Clouds,50,2013-02-22 19:47:00
12:47 PM,57.2,41.0,55,30.25,10.0,NNE,8.1,-,N/A,,Scattered Clouds,30,2013-02-22 20:47:00
1:50 PM,60.8,41.0,48,30.22,10.0,North,9.2,-,N/A,,Partly Cloudy,350,2013-02-22 21:50:00
3:59 PM,59.0,32.0,36,30.22,10.0,WSW,13.8,17.3,N/A,,Partly Cloudy,250,2013-02-22 23:59:00
4:50 PM,55.4,39.2,54,30.22,10.0,West,11.5,-,N/A,,Scattered Clouds,270,2013-02-23 00:50:00
5:49 PM,53.6,41.0,62,30.21,10.0,WSW,5.8,-,N/A,,Scattered Clouds,250,2013-02-23 01:49:00
6:48 PM,51.8,41.0,67,30.22,10.0,SW,9.2,-,N/A,,Clear,230,2013-02-23 02:48:00
8:50 PM,50.0,42.8,76,30.23,10.0,Calm,Calm,-,N/A,,Clear,0,2013-02-23 04:50:00
9:15 PM,50.0,42.8,76,30.24,10.0,WSW,3.5,-,N/A,,Clear,240,2013-02-23 05:15:00
9:35 PM,50.0,42.8,76,30.26,10.0,West,8.1,-,N/A,,Clear,280,2013-02-23 05:35:00
9:55 PM,50.0,44.6,82,30.27,10.0,West,8.1,-,N/A,,Clear,260,2013-02-23 05:55:00
10:15 PM,50.0,44.6,82,30.27,10.0,SW,3.5,-,N/A,,Scattered Clouds,230,2013-02-23 06:15:00
10:35 PM,50.0,42.8,76,30.27,10.0,WNW,9.2,-,N/A,,Overcast,290,2013-02-23 06:35:00
10:55 PM,50.0,42.8,76,30.28,10.0,NW,8.1,-,N/A,,Overcast,320,2013-02-23 06:55:00
11:15 PM,50.0,44.6,82,30.28,10.0,WNW,6.9,-,N/A,,Mostly Cloudy,290,2013-02-23 07:15:00
11:35 PM,50.0,44.6,82,30.27,10.0,West,8.1,-,N/A,,Mostly Cloudy,280,2013-02-23 07:35:00
11:55 PM,50.0,44.6,82,30.28,10.0,WNW,9.2,-,N/A,,Scattered Clouds,290,2013-02-23 07:55:00